This demonstration page uses our WeatherBlox Daily Observations layout. Learn more.

Left ArrowRight Arrow

39.01783, -85.05884

Hourly Observations for May 31, 2018

Temp ( °F °C ) Dew Point ( °F °C ) Humidity (%) Winds ( mph kmh ) Pressure ( in mb ) Visibility ( mi km ) Precip ( " mm )
12:52 am 00:52 Partly Cloudy 71 21.7 69 20.6 94 94 S 8 13 29.75 1007 10 16 N/A
1:52 am 01:52 Mostly Clear 72 22.2 70 21.1 94 94 SSW 7 11 29.76 1008 10 16 N/A
2:01 am 02:01 Cloudy 72 22.2 70 21.1 94 94 WNW 10 17 29.77 1008 9 14 N/A
2:10 am 02:10 Cloudy 72 22.2 70 21.1 94 94 WNW 5 7 29.77 1008 8 13 N/A
2:52 am 02:52 Cloudy with Mist and Fog 71 21.7 69 20.6 94 94 S 5 7 29.77 1008 5 8 N/A
3:02 am 03:02 Partly Cloudy with Mist and Fog 71 21.7 69 20.6 94 94 S 5 7 29.77 1008 4 6 N/A
3:52 am 03:52 Partly Cloudy 71 21.7 70 21.1 96 96 SSW 8 13 29.76 1008 7 11 N/A
4:21 am 04:21 Partly Cloudy 71 21.7 70 21.1 96 96 S 8 13 29.77 1008 7 11 N/A
4:52 am 04:52 Partly Cloudy with Mist and Fog 72 22.2 70 21.1 94 94 SSW 8 13 29.76 1008 6 10 N/A
5:52 am 05:52 Mostly Clear 71 21.7 69 20.6 94 94 SSW 9 15 29.77 1008 8 13 N/A
6:52 am 06:52 Partly Cloudy 71 21.7 68 20 90 90 SSW 9 15 29.79 1009 8 13 N/A
7:52 am 07:52 Partly Cloudy 72 22.2 68 20 87 87 SSW 12 19 29.81 1009 10 16 N/A
8:52 am 08:52 Partly Cloudy 73 22.8 68 20 84 84 SSW 15 24 29.82 1010 10 16 N/A
9:52 am 09:52 Mostly Cloudy 75 23.9 69 20.6 82 82 SSW 8 13 29.83 1010 10 16 N/A
10:52 am 10:52 Mostly Cloudy with Light Rain 76 24.4 71 21.7 85 85 S 10 17 29.83 1010 5 8 N/A
11:11 am 11:11 Mostly Cloudy 77 25 71 21.7 82 82 SW 13 20 29.83 1010 8 13 0.01 0.25
11:52 am 11:52 Partly Cloudy 80 26.7 71 21.7 74 74 SSW 9 15 29.83 1010 8 13 0.01 0.25
12:52 pm 12:52 Mostly Cloudy 82 27.8 72 22.2 72 72 SSW 12 19 29.82 1010 10 16 N/A
1:52 pm 13:52 Mostly Cloudy 83 28.3 72 22.2 70 70 SW 10 17 29.81 1010 10 16 N/A
2:52 pm 14:52 Mostly Cloudy 83 28.3 71 21.7 67 67 SW 12 19 29.82 1010 9 14 N/A
3:43 pm 15:43 Cloudy with Thunderstorms 77 25 67 19.4 71 71 W 31 50 29.85 1011 6 10 N/A
3:49 pm 15:49 Cloudy with Thunderstorms 70 21 64 18 83 83 W 24 39 29.85 1011 2 3 0.01 0.25
3:52 pm 15:52 Cloudy with Thunderstorms 69 20.6 64 17.8 84 84 W 21 33 29.86 1011 2 3 0.02 0.51
3:58 pm 15:58 Cloudy with Thunderstorms 69 20.6 64 17.8 84 84 W 22 35 29.85 1011 5 8 0.03 0.76
4:15 pm 16:15 Cloudy 70 21.1 64 17.8 82 82 WSW 9 15 29.85 1011 10 16 0.03 0.76
4:52 pm 16:52 Cloudy with Light Rain 69 20.6 65 18.3 87 87 SSW 10 17 29.83 1010 10 16 0.03 0.76
5:52 pm 17:52 Cloudy with Light Rain 69 20.6 65 18.3 87 87 SSW 10 17 29.81 1009 10 16 N/A
6:52 pm 18:52 Cloudy 70 21.1 66 18.9 87 87 SSW 8 13 29.79 1009 10 16 N/A
7:52 pm 19:52 Mostly Cloudy 70 21.1 65 18.3 84 84 SSW 6 9 29.80 1009 10 16 N/A
8:52 pm 20:52 Mostly Cloudy 69 20.6 65 18.3 87 87 SSW 10 17 29.81 1010 10 16 N/A
9:52 pm 21:52 Mostly Cloudy 68 20 65 18.3 90 90 SSW 14 22 29.82 1010 10 16 N/A
10:52 pm 22:52 Cloudy 68 20 64 17.8 87 87 SSW 10 17 29.83 1010 10 16 N/A
11:52 pm 23:52 Cloudy 67 19.4 64 17.8 91 91 SW 6 9 29.83 1010 10 16 N/A

Powered by AerisWeather